Location: Dziadowski
(50.3833°N, 20.0333°E)
Time: 22:47:31
(UTC+00:00)

IRS-1D - Visible Passes

Search period start: 18 April 2026 00:00
Search period end: 28 April 2026 00:00
Orbit: 736 x 811 km, 98.8° (Epoch: 18 April)

Date Brightness Start Highest point End Pass type
(mag) Time Alt. Az. Time Alt. Az. Time Alt. Az.
19 Apr 6.3 02:47:14 10° NE 02:50:32 17° E 02:53:50 10° SE visible
22 Apr 6.4 02:43:25 10° NE 02:46:29 16° E 02:49:34 10° SE visible
25 Apr 6.4 02:39:37 10° NE 02:42:26 15° E 02:45:16 10° ESE visible
